{"data":{"norad_id":28908,"epoch":"2026-09-19T22:20:50.742240Z","epoch_age_seconds":63550,"freshness":"FRESH","line1":"1 28908U 05048A   26262.93114285  .00000029  00000+0  11557-3 0  9997","line2":"2 28908  82.4640 247.0579 0007221 327.2301  59.7996 12.55603265950797","mean_motion":12.55603265,"eccentricity":0.0007221,"inclination_deg":82.464,"raan_deg":247.0579,"arg_perigee_deg":327.2301,"mean_anomaly_deg":59.7996,"bstar":0.00011557,"rev_number":95079,"period_min":114.68590757448,"perigee_km":1435.4988341178,"apogee_km":1446.7914413811,"semimajor_km":7819.2821377494,"source":"CELESTRAK","updated_at":"2026-09-20T09:00:13.636885Z"}}